Theta_e
332 329 325 323 321 318 315 314 314 314 315 315 316 315 314 314 313 312 311 310 310 310
333 328 325 322 319 317 315 315 314 314 313 315 316 316 314 314 312 311 311 311 311 310
330 326 323 319 317 316 313 313 312 312 313 314 315 315 314 312 311 312 311 311 308 306
323 322 320 317 315 313 312 311 312 313 313 314 315 314 313 312 312 312 310 309 308 305
319 318 315 314 313 312 311 311 312 313 314 315 315 313 313 312 312 311 310 308 305 304
317 315 313 312 312 311 311 311 313 314 313 314 313 312 312 313 312 311 310 306 303 301
317 313 312 312 310 311 312 311 311 311 310 310 310 312 313 313 310 307 306 305 303 301
314 313 312 312 313 313 312 309 309 307 305 304 305 306 310 311 308 304 303 304 303 299
314 313 312 313 312 312 309 306 305 304 303 301 301 300 305 309 308 305 301 299 299 298
314 312 312 313 312 310 306 304 301 300 299 297 295 297 299 305 307 303 299 295 294 295
313 312 312 312 310 309 306 303 300 297 295 294 294 296 297 303 305 299 295 294 293 292
313 312 312 310 309 309 306 302 299 297 293 290 291 296 298 303 297 294 292 294 293 293
313 313 311 309 308 307 307 304 301 295 291 295 292 295 298 299 295 292 293 293 293 297
314 312 310 308 308 308 309 304 297 294 292 291 292 292 294 295 297 296 293 292 292 293
Wind_Speed
15 10 9 10 9 7 5 4 5 6 6 7 6 6 6 4 4 5 6 7 5 4
14 15 13 12 9 7 6 5 6 7 7 6 7 7 6 4 4 6 6 5 6 4
13 14 14 13 11 9 7 7 7 6 7 7 6 6 7 5 4 6 4 4 7 4
13 15 13 12 11 10 8 8 7 7 7 7 6 5 6 6 6 7 7 5 6 6
16 14 13 12 10 10 9 7 7 7 7 6 6 6 6 6 6 7 6 6 7 6
15 15 13 12 11 9 8 7 6 7 7 6 6 6 5 6 7 7 6 6 6 4
14 14 13 10 9 8 8 8 7 7 7 7 6 5 5 7 8 7 7 7 6 4
15 13 11 10 10 9 10 9 10 10 7 6 7 4 7 7 7 7 7 6 4 4
16 14 11 11 11 12 11 9 10 7 7 6 5 6 8 8 7 6 7 5 3 3
16 13 12 12 12 12 10 8 8 7 6 6 6 5 7 9 6 7 6 4 4 3
16 13 12 12 12 10 9 10 7 7 5 6 3 5 8 9 7 7 5 4 4 4
16 15 13 13 13 10 10 9 5 6 6 7 4 6 9 11 7 6 4 3 2 3
15 14 14 13 13 9 11 10 7 6 6 7 6 8 11 9 6 5 3 1 2 5
13 13 13 11 9 9 12 10 8 7 5 7 6 6 10 7 5 5 3 4 2 3
Wind_Direction
137 134 132 132 135 122 135 133 131 111 107 106 100 87 85 80 83 85 83 81 67 67
138 140 137 133 124 133 130 124 118 108 103 109 102 102 105 102 94 83 79 78 71 67
133 131 134 128 136 136 123 115 111 111 111 115 112 111 99 99 91 86 73 72 70 47
126 129 128 132 133 132 123 123 131 126 117 123 123 108 108 108 96 95 86 67 76 59
127 126 124 126 134 131 134 132 134 122 112 120 129 134 132 112 109 97 98 83 65 46
128 129 128 141 134 135 135 127 124 113 110 104 109 125 131 116 92 82 93 92 79 51
136 134 133 136 132 129 124 116 99 96 96 96 93 100 112 99 94 90 92 91 79 52
130 121 126 138 125 116 102 107 110 104 95 94 85 70 102 107 109 107 98 103 89 27
130 131 140 132 121 109 112 108 103 102 115 103 86 66 90 115 118 99 87 96 56 15
131 134 144 128 116 121 114 109 107 107 115 101 92 72 85 94 99 97 93 90 72 40
133 144 133 124 119 120 119 120 120 115 112 103 67 40 77 105 110 98 101 99 98 75
143 147 130 126 131 127 124 118 118 115 120 105 66 37 121 115 110 110 112 83 71 59
144 138 131 133 140 141 127 121 115 106 104 102 87 57 100 120 126 127 134 78 12 6
140 132 134 134 146 126 120 118 110 108 92 90 88 75 86 109 145 142 123 88 25 330